Location: Caltech
(34.1382°N, 118.1253°W)
Time: 10:10:32
(UTC-08:00)

Meteor 2-4 Rocket - Visible Passes

Search period start: 19 December 2014 00:00
Search period end: 29 December 2014 00:00
Orbit: 800 x 908 km, 81.2° (Epoch: 18 December)

Date Brightness Start Highest point End Pass type
(mag) Time Alt. Az. Time Alt. Az. Time Alt. Az.
19 Dec 6.0 17:29:42 10° SW 17:34:06 23° WNW 17:38:36 10° NNW visible
20 Dec 6.0 17:18:36 10° SW 17:23:08 25° WNW 17:27:48 10° NNW visible
21 Dec 5.9 17:07:30 10° SW 17:12:10 27° WNW 17:16:59 10° NNW visible
